Flag for China Weather past 2 weeks in Lanchow, Gansu, China

Now
54 °F

Sunny.


Feels Like: 54 °F
Forecast: 42 / 65 °F
Wind: 1 mph from Southeast

Location: Lanzhou / Zhongchuan

Current Time: Oct 25, 2014 at 7:58:02 PM

Latest Report: Oct 25, 2014 at 7:00 PM


Visibility: 10 mi

Pressure: 30.12 "Hg

Humidity: 54%

Dew point: 37 °F

Location of LanchowLocation

Historic Weather in Lanchow — Graph

°F

Lanchow temperature yesterday

Maximum temperature yesterday: 66 °F (at 3:00 PM)
Minimum temperature yesterday: 32 °F (at 6:00 AM)
Average temperature yesterday: 48 °F

Past Weeks' High & Low Weather Summary

 TemperatureHumidityPressure
High66 °F (Oct 24, 3:00 PM)100% (Oct 11, 6:00 AM)30.60 "Hg (Oct 11, 6:00 AM)
Low30 °F (Oct 11, 6:00 AM)22% (Oct 22, 2:00 PM)30.07 "Hg (Oct 18, 2:00 PM)
Average45 °F70%30.27 "Hg
* Reported Oct 10 6:00 PM — Oct 25 6:00 PM, Lanchow, Weather by CustomWeather, © 2014

Note: Actual official high and low records may vary slightly from our data, if they occured in-between our weather recording intervals... More about our weather records

Advertising

Lanchow weather history for previous 24 hours

 ConditionsComfort  
Time TempWeatherWind HumidityBarometerVisibility
6:00 PM
Oct 25
59 °FPassing clouds.6 mph45%30.09 "HgN/A
5:00 PM63 °FPassing clouds.6 mph34%30.09 "HgN/A
4:00 PM64 °FPassing clouds.6 mph30%30.09 "HgN/A
3:00 PM64 °FPassing clouds.6 mph34%30.09 "HgN/A
2:00 PM63 °FSunny.3 mph34%30.09 "Hg10 mi
1:00 PM59 °FPassing clouds.3 mph39%30.12 "HgN/A
12:00 PM59 °FPassing clouds.3 mph39%30.15 "HgN/A
11:00 AM54 °FPassing clouds.3 mph47%30.18 "HgN/A
10:00 AM50 °FSunny.1 mph54%30.18 "Hg10 mi
9:00 AM45 °FSunny.1 mph61%30.18 "Hg10 mi
8:00 AM36 °FClear.3 mph75%30.15 "Hg10 mi
7:00 AM36 °FClear.6 mph75%30.12 "Hg10 mi
6:00 AM36 °FClear.6 mph81%30.12 "Hg10 mi
5:00 AM37 °FClear.6 mph75%30.12 "Hg10 mi
4:00 AM39 °FClear.6 mph70%30.12 "Hg10 mi
3:00 AM41 °FClear.8 mph66%30.12 "Hg10 mi
2:00 AM43 °FClear.8 mph61%30.12 "Hg10 mi
1:00 AM41 °FClear.6 mph70%30.12 "Hg5 mi
12:00 AM41 °FClear.6 mph70%30.15 "Hg4 mi
11:00 PM
Oct 24
41 °FClear.6 mph76%30.15 "Hg4 mi
10:00 PM43 °FClear.6 mph71%30.12 "Hg5 mi
9:00 PM45 °FClear.3 mph66%30.12 "Hg5 mi
8:00 PM50 °FClear.3 mph54%30.09 "Hg4 mi
7:00 PM55 °FClear.1 mph41%30.09 "Hg4 mi
Weather by CustomWeather, © 2014

See weather overviewHow to use our weather pages